Regional Weather Roundup
Issued by NWS

Home | Current Version | Previous Version | Text Only | Print | Product List | Glossary Off
Versions: 1 2 3 4 5 6 7 8 9 10 11 12 13 14 15 16 17 18 19 20 21 22 23 24 25 26 27 28 29 30 31 32 33 34 35 36 37 38 39 40 41 42 43 44 45 46 47 48 49 50

090
ASUS44 KJAN 291503
RWRMS

MISSISSIPPI HOURLY WEATHER ROUNDUP
NATIONAL WEATHER SERVICE JACKSON MS
1000 AM CDT FRI AUG 29 2014

NOTE: "FAIR: INDICATES FEW OR NO CLOUDS BELOW 12,000 FEET WITH NO
SIGNIFICANT WEATHER AND/OR OBSTRUCTIONS TO VISIBILITY.

MSZ001>002-007>008-010>013-018>021-025>028-034>036-291600-
NORTHWEST MISSISSIPPI

CITY           SKY/WX    TMP DP  RH WIND       PRES   REMARKS
CLARKSDALE     FAIR      84  73  70 CALM      29.99F HX  91
CLEVELAND      FAIR      84  75  74 W3        29.97F HX  93
GREENWOOD      SUNNY     84  74  71 S3        29.99S HX  91
GREENVILLE     SUNNY     85  74  69 SW5       29.97S HX  92
GRENADA        FAIR      82  68  61 CALM      30.00S
OLIVE BRANCH   MOSUNNY   82  72  69 SW6       30.00F
OXFORD         FAIR      81  66  61 CALM      30.02F
TUNICA         SUNNY     84  70  61 S6        29.99F
$$

MSZ003>006-009-014>017-022>024-029>033-037>039-291600-
NORTHEAST MISSISSIPPI

CITY           SKY/WX    TMP DP  RH WIND       PRES   REMARKS
BELMONT        FAIR      81  69  66 SE5       30.03F
COLUMBUS AFB   PTSUNNY   83  67  59 SE5       30.01F
CORINTH        FAIR      81  68  65 SE7       30.01S
GOLDN TRIANGLE SUNNY     81  66  61 CALM      30.02S
STARKVILLE     FAIR      79  70  73 CALM      30.02R
TUPELO         SUNNY     84  67  56 SW6       30.01S
$$

MSZ040-058-291600-
CENTRAL MISSISSIPPI

CITY           SKY/WX    TMP DP  RH WIND       PRES   REMARKS
JACKSON INTL   MOSUNNY   84  71  65 S3        29.99S
JACKSON HAWKNS SUNNY     85  71  63 CALM      29.99S HX  90
MERIDIAN KEY   MOSUNNY   85  68  56 CALM      30.02R
MERIDIAN NAS   MOSUNNY   86  71  60 CALM      30.02R HX  91
RAYMOND        FAIR      84  81  89 E3        29.99S HX  98
VICKSBURG      SUNNY     86  72  62 CALM      29.97F HX  92
$$

MSZ059>079-291600-
SOUTH MISSISSIPPI

CITY           SKY/WX    TMP DP  RH WIND       PRES   REMARKS
BROOKHAVEN     FAIR      82  73  74 E3        30.02R
COLUMBIA       FAIR      84  73  70 E6        29.99R HX  91
HATTIESBURG    SUNNY     85  72  65 E7        30.01R HX  91
MCCOMB         SUNNY     82  72  71 VRB5      30.00R
NATCHEZ        SUNNY     84  73  70 SE6       29.99R HX  91
PINE BELT      SUNNY     84  70  61 E5        30.02R
$$

MSZ080>082-291600-
COASTAL MISSISSIPPI

CITY           SKY/WX    TMP DP  RH WIND       PRES   REMARKS
BAY ST LOUIS   MOSUNNY  N/A N/A N/A E8        30.00R
BILOXI         PTSUNNY   87  75  68 E8        30.00R HX  95
PASCAGOULA     MOSUNNY   86  75  69 E13       30.01R HX  95
GULFPORT       MOSUNNY   87  75  67 E12       29.99R HX  96
$$



USA.gov is the U.S. government's official web portal to all federal, state and local government web resources and services.